Ankara, Turkey

3:51 PM +03 on February 27, 2017 (GMT +0300)
Esenboga

Weather History for LTAC - November, 2012

Change the Weather History Date:

Friday, November 2, 2012

  Actual Average Record
Temperature  
Mean Temperature 58 °F -  
Max Temperature 70 °F 51 °F 73 °F (2004)
Min Temperature 47 °F 28 °F 17 °F (2016)
Degree Days  
Heating Degree Days 6    
Growing Degree Days 8 (Base 50)    
Moisture  
Dew Point 46 °F    
Average Humidity 66    
Maximum Humidity 94    
Minimum Humidity 32    
Precipitation  
Precipitation 0.02 in - - ()
Sea Level Pressure  
Sea Level Pressure 30.03 in    
Wind  
Wind Speed 4 mph ()    
Max Wind Speed 13 mph    
Max Gust Speed -    
Visibility 6.4 miles    
Events Rain    
Averages and records for this station are not official NWS values.
T = Trace of Precipitation, MM = Missing Value Source: Averaged Metar Reports

Daily Weather History Graph

Daily Weather History Graph

Search for Another Location

Airport or City:

Trip Planner

Search our weather history database for the weather conditions in past years. The results will help you decide how hot, cold, wet, or windy it might be!

Date:

Astronomy

Nov. 02, 2012 Rise Set
Actual Time 6:18 AM EET 4:43 PM EET
Civil Twilight 5:50 AM EET 5:12 PM EET
Nautical Twilight 5:18 AM EET 5:44 PM EET
Astronomical Twilight 4:46 AM EET 6:15 PM EET
Moon 7:13 PM EET (11/2) 9:23 AM EET (11/2)
Length of Visible Light 11h 21m
Length of Day
10h 25m
Waning Gibbous, 89% of the Moon is Illuminated
Nov 2
Waning Gibbous
Nov 7
Last Quarter
Nov 14
New
Nov 20
First Quarter
Nov 28
Full

Hourly Weather History & Observations

Time (EET) Temp. Dew Point Humidity Pressure Visibility Wind Dir Wind Speed Gust Speed Precip Events Conditions
12:20 AM 50.0 °F 41.0 °F 71% 30.04 in 6.2 mi Variable 1.2 mph - N/A   Scattered Clouds
12:50 AM 50.0 °F 41.0 °F 71% 30.04 in 6.2 mi Variable 1.2 mph - N/A   Scattered Clouds
1:20 AM 50.0 °F 42.8 °F 76% 30.06 in 6.2 mi Variable 2.3 mph - N/A   Scattered Clouds
1:50 AM 51.8 °F 42.8 °F 71% 30.04 in 6.2 mi ESE 4.6 mph - N/A   Scattered Clouds
2:00 AM 51 °F 42 °F 64% 29.98 in 12 mi ESE 4.6 mph - -   Scattered Clouds
2:20 AM 48.2 °F 42.8 °F 82% 30.04 in 6.2 mi NNW 3.5 mph - N/A   Scattered Clouds
2:50 AM 48.2 °F 41.0 °F 76% 30.04 in 6.2 mi NNW 2.3 mph - N/A   Scattered Clouds
3:20 AM 48.2 °F 41.0 °F 76% 30.04 in 6.2 mi NW 4.6 mph - N/A   Scattered Clouds
3:50 AM 48.2 °F 41.0 °F 76% 30.04 in 6.2 mi Variable 1.2 mph - N/A   Scattered Clouds
4:20 AM 50.0 °F 42.8 °F 76% 30.04 in 6.2 mi Variable 1.2 mph - N/A   Scattered Clouds
4:50 AM 50.0 °F 42.8 °F 76% 30.04 in 6.2 mi Variable 2.3 mph - N/A   Scattered Clouds
5:20 AM 50.0 °F 42.8 °F 76% 30.06 in 6.2 mi Variable 1.2 mph - N/A   Scattered Clouds
5:50 AM 51.8 °F 42.8 °F 71% 30.06 in 6.2 mi Variable 1.2 mph - N/A   Scattered Clouds
6:20 AM 48.2 °F 42.8 °F 82% 30.06 in 6.2 mi Variable 2.3 mph - N/A   Scattered Clouds
6:50 AM 48.2 °F 41.0 °F 76% 30.06 in 6.2 mi WNW 4.6 mph - N/A   Scattered Clouds
7:20 AM 50.0 °F 42.8 °F 76% 30.06 in 6.2 mi Variable 1.2 mph - N/A   Scattered Clouds
7:50 AM 51.8 °F 42.8 °F 71% 30.06 in 6.2 mi Variable 1.2 mph - N/A   Scattered Clouds
8:00 AM 51 °F 43 °F 65% 30.04 in 12 mi SSE 1.2 mph - -   Partly Cloudy
8:20 AM 51.8 °F 42.8 °F 71% 30.06 in 6.2 mi ESE 3.5 mph - N/A   Scattered Clouds
8:50 AM 55.4 °F 42.8 °F 63% 30.06 in 6.2 mi Variable 2.3 mph - N/A   Scattered Clouds
9:20 AM 57.2 °F 44.6 °F 63% 30.06 in 6.2 mi Variable 2.3 mph - N/A   Scattered Clouds
9:50 AM 59.0 °F 44.6 °F 59% 30.06 in 6.2 mi North 4.6 mph - N/A   Scattered Clouds
10:20 AM 62.6 °F 44.6 °F 52% 30.06 in 6.2 mi East 1.2 mph - N/A   Scattered Clouds
10:50 AM 66.2 °F 46.4 °F 49% 30.06 in 6.2 mi SSE 5.8 mph - N/A   Scattered Clouds
11:20 AM 68.0 °F 44.6 °F 43% 30.04 in 6.2 mi South 10.4 mph - N/A   Scattered Clouds
11:50 AM 68.0 °F 46.4 °F 46% 30.04 in 6.2 mi SSW 11.5 mph - N/A   Scattered Clouds
12:20 PM 69.8 °F 46.4 °F 43% 30.04 in 6.2 mi SSW 12.7 mph - N/A   Scattered Clouds
12:50 PM 69.8 °F 44.6 °F 40% 30.01 in 6.2 mi SW 12.7 mph - N/A   Scattered Clouds
1:20 PM 68.0 °F 46.4 °F 46% 30.01 in 6.2 mi SW 12.7 mph - N/A   Scattered Clouds
1:50 PM 69.8 °F 46.4 °F 43% 30.01 in 6.2 mi SW 12.7 mph - N/A   Scattered Clouds
2:00 PM 69 °F 46 °F 32% 29.94 in 12 mi SW 12.7 mph - -   Partly Cloudy
2:20 PM 69.8 °F 46.4 °F 43% 30.01 in 6.2 mi WSW 11.5 mph - N/A   Scattered Clouds
2:50 PM 69.8 °F 46.4 °F 43% 30.01 in 6.2 mi WSW 9.2 mph - N/A   Scattered Clouds
3:20 PM 69.8 °F 46.4 °F 43% 30.01 in 6.2 mi SW 9.2 mph - N/A   Scattered Clouds
3:50 PM 68.0 °F 46.4 °F 46% 30.01 in 6.2 mi SSW 6.9 mph - N/A   Scattered Clouds
4:20 PM 66.2 °F 46.4 °F 49% 30.01 in 6.2 mi SSW 5.8 mph - N/A   Scattered Clouds
4:50 PM 66.2 °F 46.4 °F 49% 30.01 in 6.2 mi South 5.8 mph - N/A   Scattered Clouds
5:20 PM 66.2 °F 46.4 °F 49% 30.01 in 6.2 mi South 5.8 mph - N/A   Scattered Clouds
5:50 PM 64.4 °F 46.4 °F 52% 30.01 in 6.2 mi South 5.8 mph - N/A   Scattered Clouds
6:20 PM 62.6 °F 46.4 °F 55% 30.01 in 6.2 mi Variable 2.3 mph - N/A   Scattered Clouds
6:50 PM 60.8 °F 51.8 °F 72% 30.04 in 6.2 mi WNW 4.6 mph - N/A Rain Light Rain Showers
7:20 PM 59.0 °F 53.6 °F 82% 30.04 in 6.2 mi NNE 6.9 mph - N/A Rain Light Rain Showers
7:50 PM 59.0 °F 51.8 °F 77% 30.04 in 6.2 mi ESE 6.9 mph - N/A   Scattered Clouds
8:00 PM 60 °F 52 °F 67% 29.99 in 6 mi ESE 6.9 mph - - Rain Light Rain Showers
8:20 PM 59.0 °F 50.0 °F 72% 30.04 in 6.2 mi East 4.6 mph - N/A   Scattered Clouds
8:50 PM 55.4 °F 53.6 °F 94% 30.04 in 3.7 mi WNW 5.8 mph - N/A Rain Light Rain Showers
9:20 PM 57.2 °F 53.6 °F 88% 30.04 in 6.2 mi ENE 4.6 mph - N/A   Mostly Cloudy
9:50 PM 55.4 °F 53.6 °F 94% 30.04 in 6.2 mi NE 4.6 mph - N/A   Mostly Cloudy
10:20 PM 55.4 °F 51.8 °F 88% 30.04 in 6.2 mi NW 3.5 mph - N/A   Scattered Clouds
10:50 PM 53.6 °F 51.8 °F 94% 30.04 in 5.0 mi WNW 3.5 mph - N/A   Scattered Clouds
11:20 PM 53.6 °F 51.8 °F 94% 30.04 in 5.0 mi Variable 1.2 mph - N/A   Mostly Cloudy
11:50 PM 53.6 °F 51.8 °F 94% 30.04 in 5.0 mi Variable 1.2 mph - N/A   Mostly Cloudy